Date String (YYYY-MM-DD hh:mm:ss) UTC,Instrument flags,Ambient pressure (hPa),Sample flow (lpm),Bypass flow (lpm),Sample temperature (°C),Ambient temperature (°C),ASC tube jacket temperature (°C),LED temperature (°C),Box temperature (°C),Sample RH (%),Span deviation,Mass concentration (μg/m³),Mass concentration (μg/m³),Mass concentration (μg/m³)
DateTimeUTC,F1_M11,P_M11,Q1_M11,Q2_M11,T1_M11,T2_M11,T3_M11,T4_M11,T5_M11,U1_M11,ZSPAN_M11,X0_M11,X2_M11,X1_M11
2022-07-12 02:00:00,,0831.7,5.00,0.00,29.7,28.5,00.0,38.4,31.7,31.8,0000.0,0021.95,0009.73,0008.41
2022-07-12 02:01:00,,0831.7,5.01,0.00,29.7,28.6,00.0,38.4,31.7,31.6,0000.0,0022.20,0009.68,0008.40
2022-07-12 02:02:00,,0831.7,5.00,0.00,29.7,28.7,00.0,38.4,31.8,31.6,0000.0,0022.00,0009.64,0008.40
2022-07-12 02:03:00,,0831.8,4.99,0.00,29.8,28.6,00.0,38.4,31.7,31.6,0000.0,0021.61,0009.52,0008.41
2022-07-12 02:04:00,,0831.8,5.00,0.00,29.7,27.8,00.0,38.4,31.6,31.7,0000.0,0021.76,0009.47,0008.41
2022-07-12 02:05:00,,0831.7,5.00,0.00,29.7,27.2,00.0,38.3,31.5,31.8,0000.0,0022.93,0009.49,0008.42
2022-07-12 02:06:00,,0831.7,5.00,0.00,29.6,27.1,00.0,38.3,31.3,32.2,0000.0,0023.32,0009.48,0008.43
2022-07-12 02:07:00,,0831.7,4.99,0.00,29.5,27.1,00.0,38.3,31.2,32.6,0000.0,0023.40,0009.55,0008.43
2022-07-12 02:08:00,,0831.7,5.00,0.00,29.5,27.3,00.0,38.3,31.2,32.8,0000.0,0021.87,0009.56,0008.44
2022-07-12 02:09:00,,0831.8,5.01,0.00,29.5,27.5,00.0,38.3,31.3,32.4,0000.0,0022.46,0009.58,0008.44
2022-07-12 02:10:00,,0831.8,5.00,0.00,29.5,27.7,00.0,38.3,31.4,32.2,0000.0,0022.17,0009.63,0008.44
2022-07-12 02:11:00,,0831.9,5.00,0.00,29.5,27.9,00.0,38.3,31.4,32.0,0000.0,0021.58,0009.66,0008.47
2022-07-12 02:12:00,,0832.0,5.00,0.00,29.5,28.1,00.0,38.3,31.5,31.9,0000.0,0021.48,0009.68,0008.50
2022-07-12 02:13:00,,0832.0,5.00,0.00,29.6,28.2,00.0,38.3,31.5,31.9,0000.0,0021.87,0009.73,0008.51
2022-07-12 02:14:00,,0832.0,5.01,0.00,29.6,28.4,00.0,38.3,31.6,31.8,0000.0,0021.83,0009.78,0008.52
2022-07-12 02:15:00,,0832.0,5.00,0.00,29.6,28.5,00.0,38.4,31.6,31.8,0000.0,0021.62,0009.80,0008.54
2022-07-12 02:16:00,,0832.0,5.01,0.00,29.7,28.6,00.0,38.4,31.7,31.7,0000.0,0021.29,0009.84,0008.56
2022-07-12 02:17:00,,0832.0,5.01,0.00,29.7,28.8,00.0,38.4,31.7,31.5,0000.0,0020.09,0009.86,0008.59
2022-07-12 02:18:00,,0832.0,5.00,0.00,29.8,28.8,00.0,38.4,31.7,31.5,0000.0,0020.84,0009.83,0008.62
2022-07-12 02:19:00,,0832.0,4.98,0.00,29.8,28.3,00.0,38.4,31.7,31.4,0000.0,0021.14,0009.82,0008.65
2022-07-12 02:20:00,,0832.0,5.00,0.00,29.7,27.5,00.0,38.3,31.5,31.5,0000.0,0020.92,0009.84,0008.67
2022-07-12 02:21:00,,0831.9,5.00,0.00,29.7,27.2,00.0,38.3,31.4,31.7,0000.0,0020.52,0009.87,0008.68
2022-07-12 02:22:00,,0832.0,5.01,0.00,29.6,27.2,00.0,38.3,31.2,31.9,0000.0,0019.82,0009.90,0008.68
2022-07-12 02:23:00,,0831.9,4.99,0.00,29.5,27.3,00.0,38.3,31.2,32.3,0000.0,0019.92,0009.92,0008.70
2022-07-12 02:24:00,,0831.9,4.99,0.00,29.5,27.4,00.0,38.3,31.3,32.2,0000.0,0019.55,0009.94,0008.73
2022-07-12 02:25:00,,0831.9,5.01,0.00,29.5,27.6,00.0,38.3,31.3,32.1,0000.0,0019.91,0010.02,0008.77
2022-07-12 02:26:00,,0832.0,4.99,0.00,29.5,27.8,00.0,38.3,31.4,32.0,0000.0,0020.57,0010.07,0008.80
2022-07-12 02:27:00,,0832.0,5.01,0.00,29.5,28.0,00.0,38.3,31.4,31.9,0000.0,0019.94,0010.05,0008.83
2022-07-12 02:28:00,,0831.9,5.00,0.00,29.5,28.1,00.0,38.3,31.5,31.8,0000.0,0019.88,0010.08,0008.86
2022-07-12 02:29:00,,0831.9,5.00,0.00,29.6,28.3,00.0,38.3,31.5,31.8,0000.0,0018.90,0010.13,0008.88
2022-07-12 02:30:00,,0831.9,5.00,0.00,29.6,28.4,00.0,38.3,31.6,31.8,0000.0,0018.98,0010.23,0008.90
2022-07-12 02:31:00,,0831.8,5.00,0.00,29.6,28.5,00.0,38.3,31.6,31.7,0000.0,0019.11,0010.23,0008.91
2022-07-12 02:32:00,,0831.8,5.00,0.00,29.7,28.6,00.0,38.4,31.7,31.7,0000.0,0018.93,0010.24,0008.92
2022-07-12 02:33:00,,0831.7,5.00,0.00,29.7,28.7,00.0,38.4,31.7,31.5,0000.0,0019.72,0010.27,0008.96
2022-07-12 02:34:00,,0831.8,5.01,0.00,29.7,28.8,00.0,38.4,31.8,31.4,0000.0,0020.57,0010.29,0009.00
2022-07-12 02:35:00,,0831.7,4.99,0.00,29.8,28.3,00.0,38.4,31.7,31.4,0000.0,0020.27,0010.26,0009.03
2022-07-12 02:36:00,,0831.8,5.00,0.00,29.7,27.5,00.0,38.3,31.5,31.5,0000.0,0020.39,0010.31,0009.05
2022-07-12 02:37:00,,0831.8,4.99,0.00,29.6,27.1,00.0,38.3,31.4,31.6,0000.0,0019.78,0010.36,0009.08
2022-07-12 02:38:00,,0831.8,5.00,0.00,29.5,27.1,00.0,38.3,31.2,31.7,0000.0,0019.45,0010.41,0009.09
2022-07-12 02:39:00,,0831.8,5.00,0.00,29.5,27.2,00.0,38.3,31.2,31.9,0000.0,0019.44,0010.44,0009.10
2022-07-12 02:40:00,,0831.7,4.99,0.00,29.4,27.3,00.0,38.3,31.2,32.0,0000.0,0019.23,0010.42,0009.09
2022-07-12 02:41:00,,0831.7,5.00,0.00,29.4,27.5,00.0,38.3,31.3,31.9,0000.0,0019.60,0010.45,0009.09
2022-07-12 02:42:00,,0831.8,5.00,0.00,29.5,27.7,00.0,38.3,31.3,31.9,0000.0,0020.32,0010.47,0009.11
2022-07-12 02:43:00,,0831.7,5.00,0.00,29.5,27.9,00.0,38.3,31.4,31.8,0000.0,0020.73,0010.49,0009.13
2022-07-12 02:44:00,,0831.7,5.00,0.00,29.5,28.1,00.0,38.3,31.4,31.8,0000.0,0020.21,0010.48,0009.13
2022-07-12 02:45:00,,0831.8,5.00,0.00,29.5,28.2,00.0,38.3,31.5,31.7,0000.0,0019.29,0010.49,0009.14
2022-07-12 02:46:00,,0831.7,5.00,0.00,29.6,28.4,00.0,38.3,31.5,31.7,0000.0,0019.02,0010.55,0009.16
2022-07-12 02:47:00,,0831.8,5.00,0.00,29.6,28.5,00.0,38.3,31.6,31.6,0000.0,0019.01,0010.46,0009.16
2022-07-12 02:48:00,,0831.7,5.00,0.00,29.6,28.6,00.0,38.4,31.6,31.5,0000.0,0019.91,0010.46,0009.18
2022-07-12 02:49:00,,0831.7,4.99,0.00,29.7,28.7,00.0,38.4,31.7,31.3,0000.0,0020.54,0010.46,0009.21
2022-07-12 02:50:00,,0831.8,4.99,0.00,29.7,28.8,00.0,38.4,31.7,31.2,0000.0,0020.73,0010.48,0009.24
2022-07-12 02:51:00,,0831.8,4.99,0.00,29.8,28.8,00.0,38.4,31.8,31.1,0000.0,0020.70,0010.48,0009.28
2022-07-12 02:52:00,,0831.8,5.00,0.00,29.8,28.4,00.0,38.4,31.7,31.0,-000.0,0020.24,0010.52,0009.31
2022-07-12 02:53:00,,0831.8,4.99,0.00,29.7,27.8,00.0,38.4,31.6,31.0,-000.0,0019.07,0010.51,0009.34
2022-07-12 02:54:00,,0831.8,5.00,0.00,29.7,27.6,00.0,38.4,31.5,31.0,0000.0,0018.44,0010.51,0009.35
2022-07-12 02:55:00,,0831.8,5.00,0.00,29.6,27.6,00.0,38.3,31.4,31.1,-000.0,0018.50,0010.48,0009.34
2022-07-12 02:56:00,,0831.9,4.99,0.00,29.6,27.7,00.0,38.3,31.4,31.1,0000.1,0018.81,0010.45,0009.31
2022-07-12 02:57:00,,0831.9,5.00,0.00,29.6,27.9,00.0,38.4,31.4,31.1,0000.4,0019.43,0010.40,0009.26
2022-07-12 02:58:00,,0832.0,5.01,0.00,29.6,28.0,00.0,38.4,31.5,31.0,0000.6,0019.20,0010.38,0009.20
2022-07-12 02:59:00,,0832.0,4.99,0.00,29.6,28.2,00.0,38.4,31.5,30.9,0000.7,0018.70,0010.30,0009.15
